Previsão horária em Barsanovo

Hoje, 21 Outubro, Quarta-feira

Tempo Temperatura Precipitação Vento Pressão Humidade
00:00 +5°C° 0 mm 1 m/s 757 mmHg 88%
01:00 +4°C° 0 mm 2 m/s 757 mmHg 88%
02:00 +4°C° 0 mm 2 m/s 756 mmHg 88%
03:00 +4°C° 0 mm 2 m/s 756 mmHg 87%
04:00 +4°C° 0 mm 2 m/s 755 mmHg 86%
05:00 +3°C° 0 mm 3 m/s 754 mmHg 85%
06:00 +3°C° 0.4 mm 3 m/s 754 mmHg 87%
07:00 +3°C° 0.4 mm 3 m/s 753 mmHg 89%
08:00 +3°C° 0.4 mm 3 m/s 753 mmHg 92%
09:00 +3°C° 0.6 mm 3 m/s 753 mmHg 92%
10:00 +4°C° 0.6 mm 3 m/s 752 mmHg 92%
11:00 +4°C° 0.6 mm 3 m/s 752 mmHg 92%
12:00 +5°C° 0.1 mm 3 m/s 752 mmHg 91%
13:00 +5°C° 0.1 mm 3 m/s 752 mmHg 90%
14:00 +7°C° 0.1 mm 2 m/s 752 mmHg 89%
15:00 +7°C° 0 mm 2 m/s 751 mmHg 91%
16:00 +6°C° 0 mm 2 m/s 751 mmHg 92%
17:00 +7°C° 0 mm 1 m/s 751 mmHg 94%
18:00 +6°C° 0 mm 2 m/s 751 mmHg 94%
19:00 +7°C° 0 mm 2 m/s 751 mmHg 94%
20:00 +7°C° 0 mm 2 m/s 752 mmHg 94%
21:00 +6°C° 0 mm 2 m/s 752 mmHg 95%
22:00 +6°C° 0 mm 2 m/s 751 mmHg 96%
23:00 +5°C° 0 mm 2 m/s 751 mmHg 97%

Amanhã, 22 Outubro, Quinta-feira

Tempo Temperatura Precipitação Vento Pressão Humidade
00:00 +5°C° 0 mm 2 m/s 751 mmHg 96%
01:00 +6°C° 0 mm 2 m/s 751 mmHg 96%
02:00 +5°C° 0 mm 3 m/s 751 mmHg 96%
03:00 +5°C° 0.1 mm 3 m/s 750 mmHg 95%
04:00 +5°C° 0.1 mm 4 m/s 749 mmHg 94%
05:00 +6°C° 0.1 mm 4 m/s 748 mmHg 94%
06:00 +6°C° 1.5 mm 4 m/s 748 mmHg 94%
07:00 +6°C° 1.5 mm 4 m/s 747 mmHg 94%
08:00 +7°C° 1.5 mm 4 m/s 747 mmHg 95%
09:00 +7°C° 0.3 mm 4 m/s 746 mmHg 93%
10:00 +8°C° 0.3 mm 4 m/s 746 mmHg 91%
11:00 +8°C° 0.3 mm 4 m/s 745 mmHg 89%
12:00 +9°C° 0.1 mm 5 m/s 745 mmHg 89%
13:00 +9°C° 0.1 mm 5 m/s 744 mmHg 88%
14:00 +10°C° 0.1 mm 5 m/s 744 mmHg 88%
15:00 +10°C° 0.1 mm 5 m/s 743 mmHg 87%
16:00 +11°C° 0.1 mm 6 m/s 743 mmHg 85%
17:00 +13°C° 0.1 mm 6 m/s 743 mmHg 83%
18:00 +13°C° 0 mm 6 m/s 743 mmHg 83%
19:00 +13°C° 0 mm 6 m/s 743 mmHg 83%
20:00 +13°C° 0 mm 6 m/s 744 mmHg 83%
21:00 +11°C° 0 mm 6 m/s 744 mmHg 83%
22:00 +11°C° 0 mm 6 m/s 745 mmHg 84%
23:00 +12°C° 0 mm 5 m/s 745 mmHg 84%

Depois de amanhã, 23 Outubro, Sexta-feira

Tempo Temperatura Precipitação Vento Pressão Humidade
00:00 +12°C° 0 mm 5 m/s 745 mmHg 85%
01:00 +12°C° 0 mm 5 m/s 746 mmHg 85%
02:00 +10°C° 0 mm 5 m/s 746 mmHg 86%
03:00 +11°C° 0 mm 4 m/s 746 mmHg 87%
04:00 +11°C° 0 mm 4 m/s 746 mmHg 89%
05:00 +10°C° 0 mm 4 m/s 746 mmHg 90%
06:00 +11°C° 0 mm 4 m/s 745 mmHg 91%
07:00 +11°C° 0 mm 4 m/s 745 mmHg 91%
08:00 +11°C° 0 mm 4 m/s 745 mmHg 91%
09:00 +11°C° 0.6 mm 4 m/s 744 mmHg 91%
10:00 +12°C° 0.6 mm 4 m/s 744 mmHg 90%
11:00 +12°C° 0.6 mm 5 m/s 744 mmHg 90%
12:00 +12°C° 0.3 mm 5 m/s 743 mmHg 88%
13:00 +12°C° 0.3 mm 5 m/s 743 mmHg 86%
14:00 +12°C° 0.3 mm 5 m/s 743 mmHg 83%
15:00 +12°C° 0.4 mm 4 m/s 743 mmHg 84%
16:00 +11°C° 0.4 mm 4 m/s 743 mmHg 85%
17:00 +11°C° 0.4 mm 4 m/s 743 mmHg 86%
18:00 +11°C° 0.2 mm 4 m/s 743 mmHg 86%
19:00 +10°C° 0.2 mm 4 m/s 743 mmHg 86%
20:00 +10°C° 0.2 mm 4 m/s 744 mmHg 87%
21:00 +8°C° 0 mm 4 m/s 744 mmHg 86%
22:00 +8°C° 0 mm 4 m/s 744 mmHg 86%
23:00 +8°C° 0 mm 5 m/s 745 mmHg 85%

24 Outubro, Sábado

Tempo Temperatura Precipitação Vento Pressão Humidade
00:00 +7°C° 0 mm 4 m/s 745 mmHg 87%
01:00 +7°C° 0 mm 4 m/s 745 mmHg 90%
02:00 +7°C° 0 mm 3 m/s 746 mmHg 92%
03:00 +7°C° 0 mm 3 m/s 746 mmHg 93%
04:00 +7°C° 0 mm 3 m/s 746 mmHg 94%
05:00 +6°C° 0 mm 2 m/s 746 mmHg 94%
06:00 +7°C° 0 mm 3 m/s 746 mmHg 94%
07:00 +7°C° 0 mm 3 m/s 746 mmHg 93%
08:00 +8°C° 0 mm 3 m/s 746 mmHg 92%
09:00 +8°C° 0 mm 3 m/s 747 mmHg 90%
10:00 +8°C° 0 mm 3 m/s 747 mmHg 88%
11:00 +9°C° 0 mm 2 m/s 747 mmHg 86%
12:00 +9°C° 0 mm 2 m/s 747 mmHg 85%
13:00 +9°C° 0 mm 2 m/s 747 mmHg 85%
14:00 +10°C° 0 mm 1 m/s 746 mmHg 84%
15:00 +10°C° 0 mm 1 m/s 746 mmHg 86%
16:00 +10°C° 0 mm 1 m/s 746 mmHg 87%
17:00 +10°C° 0 mm 1 m/s 745 mmHg 89%
18:00 +9°C° 0.1 mm 1 m/s 745 mmHg 90%
19:00 +9°C° 0.1 mm 1 m/s 745 mmHg 92%
20:00 +9°C° 0.1 mm 1 m/s 745 mmHg 93%
21:00 +9°C° 0.2 mm 1 m/s 745 mmHg 93%
22:00 +9°C° 0.2 mm 1 m/s 745 mmHg 94%
23:00 +9°C° 0.2 mm 1 m/s 744 mmHg 94%

25 Outubro, Domingo

Tempo Temperatura Precipitação Vento Pressão Humidade
00:00 +7°C° 0.2 mm 2 m/s 744 mmHg 94%
01:00 +7°C° 0.2 mm 2 m/s 744 mmHg 95%
02:00 +7°C° 0.2 mm 2 m/s 744 mmHg 95%
03:00 +7°C° 0.1 mm 2 m/s 745 mmHg 95%
04:00 +7°C° 0.1 mm 2 m/s 745 mmHg 95%
05:00 +7°C° 0.1 mm 2 m/s 745 mmHg 95%
06:00 +6°C° 0 mm 2 m/s 746 mmHg 95%
07:00 +6°C° 0 mm 2 m/s 746 mmHg 95%
08:00 +6°C° 0 mm 2 m/s 746 mmHg 95%
09:00 +7°C° 0 mm 2 m/s 747 mmHg 89%
10:00 +8°C° 0 mm 2 m/s 748 mmHg 84%
11:00 +9°C° 0 mm 2 m/s 748 mmHg 78%
12:00 +10°C° 0 mm 2 m/s 749 mmHg 77%
13:00 +10°C° 0 mm 2 m/s 749 mmHg 76%
14:00 +10°C° 0 mm 2 m/s 749 mmHg 75%
15:00 +10°C° 0 mm 2 m/s 750 mmHg 80%
16:00 +9°C° 0 mm 2 m/s 750 mmHg 84%
17:00 +8°C° 0 mm 2 m/s 751 mmHg 89%
18:00 +8°C° 0 mm 2 m/s 751 mmHg 89%
19:00 +7°C° 0 mm 2 m/s 752 mmHg 88%
20:00 +7°C° 0 mm 3 m/s 752 mmHg 88%
21:00 +7°C° 0 mm 2 m/s 753 mmHg 86%
22:00 +7°C° 0 mm 2 m/s 753 mmHg 85%
23:00 +7°C° 0 mm 1 m/s 754 mmHg 84%

26 Outubro, Segunda-feira

Tempo Temperatura Precipitação Vento Pressão Humidade
00:00 +7°C° 0 mm 1 m/s 754 mmHg 86%
01:00 +7°C° 0 mm 1 m/s 754 mmHg 88%
02:00 +6°C° 0 mm 1 m/s 755 mmHg 90%
03:00 +6°C° 0 mm 1 m/s 755 mmHg 91%
04:00 +5°C° 0 mm 1 m/s 755 mmHg 93%
05:00 +5°C° 0 mm 1 m/s 756 mmHg 95%
06:00 +5°C° 0 mm 1 m/s 756 mmHg 94%
07:00 +5°C° 0 mm 1 m/s 756 mmHg 94%
08:00 +5°C° 0 mm 1 m/s 757 mmHg 94%
09:00 +6°C° 0 mm 1 m/s 757 mmHg 88%
10:00 +8°C° 0 mm 1 m/s 757 mmHg 82%
11:00 +9°C° 0 mm 1 m/s 757 mmHg 76%
12:00 +10°C° 0 mm 1 m/s 757 mmHg 74%
13:00 +10°C° 0 mm 1 m/s 758 mmHg 73%
14:00 +10°C° 0 mm 1 m/s 758 mmHg 71%
15:00 +9°C° 0 mm 1 m/s 758 mmHg 76%
16:00 +8°C° 0 mm 1 m/s 758 mmHg 81%
17:00 +7°C° 0 mm 1 m/s 758 mmHg 87%
18:00 +7°C° 0 mm 1 m/s 758 mmHg 89%
19:00 +5°C° 0 mm 2 m/s 758 mmHg 90%
20:00 +5°C° 0 mm 2 m/s 759 mmHg 92%
21:00 +5°C° 0 mm 2 m/s 759 mmHg 93%
22:00 +5°C° 0 mm 2 m/s 759 mmHg 93%
23:00 +4°C° 0 mm 2 m/s 759 mmHg 94%

27 Outubro, Terça-feira

Tempo Temperatura Precipitação Vento Pressão Humidade
00:00 +4°C° 0 mm 2 m/s 759 mmHg 94%
01:00 +4°C° 0 mm 2 m/s 759 mmHg 94%
02:00 +4°C° 0 mm 2 m/s 759 mmHg 94%
03:00 +4°C° 0 mm 2 m/s 760 mmHg 94%
04:00 +4°C° 0 mm 2 m/s 760 mmHg 94%
05:00 +4°C° 0 mm 2 m/s 760 mmHg 94%
06:00 +3°C° 0 mm 3 m/s 760 mmHg 94%
07:00 +3°C° 0 mm 3 m/s 760 mmHg 94%
08:00 +3°C° 0 mm 3 m/s 760 mmHg 94%
09:00 +4°C° 0 mm 3 m/s 760 mmHg 89%
10:00 +6°C° 0 mm 4 m/s 760 mmHg 85%
11:00 +7°C° 0 mm 4 m/s 760 mmHg 80%
12:00 +8°C° 0 mm 4 m/s 759 mmHg 78%
13:00 +8°C° 0 mm 4 m/s 759 mmHg 76%
14:00 +10°C° 0 mm 4 m/s 759 mmHg 75%
15:00 +8°C° 0 mm 4 m/s 759 mmHg 78%
16:00 +8°C° 0 mm 3 m/s 759 mmHg 82%
17:00 +7°C° 0 mm 3 m/s 759 mmHg 85%
18:00 +7°C° 0 mm 3 m/s 759 mmHg 86%
19:00 +5°C° 0 mm 3 m/s 759 mmHg 86%
20:00 +5°C° 0 mm 3 m/s 759 mmHg 86%
21:00 +5°C° 0 mm 3 m/s 759 mmHg 88%
22:00 +5°C° 0 mm 3 m/s 759 mmHg 89%
23:00 +4°C° 0 mm 3 m/s 759 mmHg 90%
Mostrar mais